Torna al catalogo

ARIANE 5 R/B

AttivoHEO
NORAD 33276·ROCKET BODY·🇫🇷 France

Lanciato Aug 14, 2008 da Guiana Space Centre

Loading…

Prossimi Passaggi (prossime 24 ore)

TLE

AggiornatoSource: Space-Track

Epoca: Sep 14, 2026, 12:44 UTC

1 33276U 08038C   26257.53074269  .00001937  00000-0  62068-3 0  9993
2 33276   2.4082  50.9923 7029647 263.1092  19.7974  2.59578055159092

Traccia ARIANE 5 R/B in tempo reale con AllMySat

Download on the App Store